Starlink 11353

operational
NORAD ID: 61941 Int'l Des: 2024-209 Owner: SPXS Country: US Constellation: starlink
LEOCIRCULAR

About Starlink 11353

Description loading...

Live Position

Loading 3D Globe...

Upcoming Passes

Altitude History

Altitude vs Time

uPlot chart will show altitude changes over time

Two-Line Element Set

1 61941U 24209C 25352.20018613 .00318709 00000-0 25267-2 0 9998
2 61941 53.1574 52.6402 0001030 99.9920 260.1214 15.69795899 63888
Epoch: Dec 18, 2025 • Age: 11 hours

Current Status

Altitude 359.7 km
Velocity 7.70 km/s
Sub-Earth Point 27.21°N, 110.73°E
Launch Date Nov 14, 2024
Age 1 years
Type internet

Technical Details

Classification Payload
Mass 960.00 kg
Dry Mass 910.00 kg
Total Mass 960.00 kg
Length 0.30 m
Diameter 4.10 m
Span 29.00 m
Shape Box + pan
Manufacturer SPXS
Bus Type Starlink V2MD
Phase Status In Orbit
Owner/State SPXS/US

Large Constellations

Loading constellations...